Location: Doverdale
(52.2833°N, 2.2000°W)
Time: 14:43:36
(UTC+00:00)

Cosmos 44 - Pass Details

Date: 29 October 2020
Orbit: 577 x 784 km, 65.1° (Epoch: 28 November)

Event Time Altitude Azimuth Distance (km) Brightness Sun altitude
Rises 19:02:29 0° 249° (WSW) 2,917 7.6 -21.5°
Reaches altitude 10° 19:04:50 10° 257° (WSW) 2,043 6.7 -21.9°
Maximum altitude 19:09:10 38° 327° (NNW) 1,026 4.4 -22.6°
Enters shadow 19:11:48 22° 22° (NNE) 1,511 4.9 -23.0°
